Location: Pilipovskiye Korichintsy
(49.1833°N, 27.4667°E)
Time: 11:32:57
(UTC+00:00)

Meteor 2-4 Rocket - Pass Details

Date: 14 July 2020
Orbit: 799 x 908 km, 81.2° (Epoch: 07 August)

Event Time Altitude Azimuth Distance (km) Brightness Sun altitude
Rises 00:13:39 0° 345° (NNW) 3,550 7.7 -14.5°
Reaches altitude 10° 00:16:10 10° 341° (NNW) 2,604 6.9 -14.3°
Maximum altitude 00:21:59 58° 265° (W) 1,051 4.0 -13.8°
Enters shadow 00:26:30 17° 191° (S) 2,120 5.2 -13.5°
